Regional Weather Roundup
Issued by NWS

Home | Current Version | Previous Version | Text Only | Print | Product List | Glossary On
Versions: 1 2 3 4 5 6 7 8 9 10 11 12 13 14 15 16 17 18 19 20 21 22 23 24 25 26 27 28 29 30 31 32 33 34 35 36 37 38 39 40 41 42 43 44 45 46 47 48 49 50
736
ASUS45 KBOU 061007
RWRCO

WEATHER ROUNDUP FOR COLORADO
NATIONAL WEATHER SERVICE DENVER/BOULDER CO
300 AM MST SAT FEB 06 2016

NOTE: "FAIR" INDICATES FEW OR NO CLOUDS BELOW 12000 FEET WITH NO
SIGNIFICANT WEATHER AND/OR OBSTRUCTIONS TO VISIBILITY.

COZ001>005-013-030-031-061100-
...NORTHWEST COLORADO...

CITY           SKY/WX    TMP DP  RH WIND       PRES   REMARKS
CRAIG          CLOUDY   -10 -15  78 CALM      30.49F
HAYDEN         CLOUDY     9   3  78 SE10      30.46F WCI  -6
MEEKER         CLOUDY    -2  -6  83 E3        30.49S
MOUNT WERNER   NOT AVBL
STEAMBOAT SPGS CLOUDY     8   5  86 CALM      30.46F
WALDEN         CLOUDY     3  -4  72 SE10      30.39F WCI -12
$$

COZ006>008-011-061100-
...WEST CENTRAL VALLEYS...

CITY           SKY/WX    TMP DP  RH WIND       PRES   REMARKS
GRAND JUNCTION CLOUDY     4   3  96 E3        30.58S FOG
MONTROSE       CLEAR      6   0  76 SE8       30.58R WCI  -7
EAGLE          CLOUDY    -2  -2 100 E6        30.58R WCI -14
RIFLE          CLOUDY     1  -5  75 CALM      30.58R
DELTA          CLEAR     13   8  79 E5        30.59R WCI   6
NUCLA          CLEAR     10   3  72 E8        30.55F WCI  -1
$$

COZ017>023-064>068-061100-
...SOUTHWEST COLORADO...

CITY           SKY/WX    TMP DP  RH WIND       PRES   REMARKS
DURANGO        CLOUDY     1  -3  83 NE3       30.45S
CORTEZ         CLOUDY     6   1  80 E8        30.49S WCI  -7
PAGOSA SPRINGS CLOUDY     0  -5  80 W5        30.42S WCI -10
TELLURIDE      CLOUDY    11   3  70 SE5       30.43S WCI   3
WOLF CREEK PAS CLOUDY    16   1  53 W8        30.39S WCI   5
$$

COZ009-010-012-014-032>034-037-058>063-061100-
...CENTRAL COLORADO...

CITY           SKY/WX    TMP DP  RH WIND       PRES   REMARKS
ASPEN          CLOUDY    -2  -7  79 S3        30.44S
BUENA VISTA    CLOUDY     4  -5  67 W5        30.35F WCI  -5
COPPER MTN     CLOUDY    14   9  79 W10       30.33S WCI   1
BERTHOUD PASS  MOCLDY     1  -9  60 NW31G43   30.26S WCI -24
COTTONWOOD PAS CLOUDY    23   7  50 NW5       30.30F WCI  17
GUNNISON       CLOUDY   -17 N/A N/A CALM      30.54S
KREMMLING      CLOUDY   N/A N/A N/A CALM      30.51S
LEADVILLE      CLOUDY     4  -2  76 NE10      30.34F WCI -11
MONARCH PASS   CLOUDY     3   0  85 MISG      30.40S
SALIDA         NOT AVBL
SUNLIGHT       CLOUDY    10   9  92 CALM        N/A
WILKERSON PASS CLOUDY    21   1  42 NW13G25   30.26F WCI   9
$$

COZ069>075-061100-
...SAN LUIS VALLEY/SANGRE DE CRISTO MOUNTAINS...

CITY           SKY/WX    TMP DP  RH WIND       PRES   REMARKS
ALAMOSA        NOT AVBL
LA VETA PASS   CLOUDY     7  -2  66 MISG      30.26S
SAGUACHE       CLOUDY    12   0  57 NW7       30.40F WCI   2
$$

COZ035-036-038>040-061100-
...NORTHERN COLORADO FRONT RANGE...

CITY           SKY/WX    TMP DP  RH WIND       PRES   REMARKS
DENVER INTL AP CLOUDY    23   6  48 SW10      30.22S WCI  12
DMNS CITY PARK   N/A     24   5  44 SE12      30.23S WCI  13
AURORA         CLEAR     20   5  51 S9        30.23S WCI  10
FRONT RANGE AP NOT AVBL
ERIE MUNI ARPT CLOUDY     7   4  89 CALM      30.23F
BOULDER MUN AP CLOUDY    21  10  63 CALM      30.21F
CENTENNIAL     CLOUDY    25   4  40 SW6       30.22S WCI  18
BROOMFIELD     CLOUDY    25  10  54 CALM      30.21S
FORT COLLINS   CLOUDY    10   7  85 CALM      30.23F
LONGMONT       CLOUDY     7   1  75 CALM      30.25F
$$

COZ041-046-047-076>085-087-088-061100-
...PIKES PEAK/PALMER DIVIDE AND SOUTHERN FOOTHILLS...

CITY           SKY/WX    TMP DP  RH WIND       PRES   REMARKS
COLO. SPRINGS  CLOUDY    15   2  56 N8        30.25F WCI   4
A. F. ACADEMY  CLOUDY     4  -4  71 N13       30.22F WCI -13
SCHRIEVER AFB  FAIR      12   4  69 W7        30.25F WCI   1
ELLICOTT       NOT AVBL
FALCON         CLOUDY    14   0  53 NW9       30.23F WCI   2
FORT CARSON    CLOUDY    11   4  74 N12       30.23F WCI  -3
LIMON          CLOUDY    -2  -7  79 N9        30.25F WCI -18
MONUMENT HILL  CLOUDY    19   0  42 SW10      30.23F WCI   8
TRINIDAD       CLOUDY    14   7  73 W10       30.28F WCI   1
$$

COZ042>045-048>051-090-091-061100-
...NORTHEAST COLORADO...

CITY           SKY/WX    TMP DP  RH WIND       PRES   REMARKS
GREELEY ARPT   CLOUDY     1  -2  85 W3        30.25F
AKRON          CLOUDY    18   7  62 W13       30.22F WCI   5
BURLINGTON     CLOUDY    13   4  67 SW10      30.26F WCI   0
WRAY           CLOUDY    10   5  79 W3        30.25F
STERLING       CLOUDY     9   3  78 S9        30.24F WCI  -5
HOLYOKE        CLOUDY    18  10  73 W10       30.23F WCI   6
FORT MORGAN    CLOUDY     6   1  78 W13       30.24F WCI -10
$$

COZ086-089-092>099-061100-
...SOUTHEAST COLORADO...

CITY           SKY/WX    TMP DP  RH WIND       PRES   REMARKS
PUEBLO         CLOUDY    13   7  77 CALM      30.29F
LA JUNTA       CLOUDY    13   9  84 W7        30.32F WCI   3
LAMAR          CLOUDY    17  12  80 SW9       30.32F WCI   6
SPRINGFIELD      N/A     19  13  77 W12       30.30F WCI   7
$$




USA.gov is the U.S. government's official web portal to all federal, state and local government web resources and services.